Bonaria — ICUS — position and weather

sailwx.info

Track history (hours):
 
Tides and Currents Weather Stations Pressure Air Temp Water Temp Dewpoint Dewpoint Depression Visibility Wind Speed Wind Dir Waves Ship Positions

Bonaria

Last reported at 2014-Jul-28 23:33 UTC. Time now 2014-Jul-29 08:41 UTC.
Position N 40°23' E 010°33'.

Length 213 m; draft 7 m.

Type: Ship. MMSI: 247322400.

Date/timePositionNaut miles runAvg speedWind from/ knotsBaromVisibWave heightAir tempDewpointWater temp
2014-Jul-28 23:33N 40°23' E 010°33'9816.2
2014-Jul-28 17:32N 39°08' E 009°10'5 5.0
2014-Jul-28 16:32N 39°13' E 009°06'0 0.0
2014-Jul-28 15:31N 39°13' E 009°06'0 0.0
2014-Jul-28 14:31N 39°13' E 009°06'0 0.0
2014-Jul-28 13:33N 39°13' E 009°06'0 0.0
2014-Jul-28 12:30N 39°13' E 009°06'0 0.0
2014-Jul-28 11:32N 39°13' E 009°06'0 0.0
2014-Jul-28 10:32N 39°13' E 009°06'0 0.0
2014-Jul-28 09:32N 39°13' E 009°06'0 0.0
2014-Jul-28 08:28N 39°13' E 009°06'0 0.0
2014-Jul-28 07:31N 39°13' E 009°06'0 0.0
2014-Jul-28 06:33N 39°13' E 009°06'3 3.4
2014-Jul-28 05:33N 39°09' E 009°08'0 0.0
2014-Jul-26 17:33N 39°09' E 009°09'4 3.8
2014-Jul-26 16:31N 39°13' E 009°06'0 0.0
2014-Jul-26 15:31N 39°13' E 009°06'0 0.0
2014-Jul-26 14:31N 39°13' E 009°06'0 0.0
2014-Jul-26 13:33N 39°13' E 009°06'0 0.0
2014-Jul-26 12:33N 39°13' E 009°06'0 0.0
2014-Jul-26 11:29N 39°13' E 009°06'0 0.0
2014-Jul-26 10:32N 39°13' E 009°06'0 0.0
2014-Jul-26 09:31N 39°13' E 009°06'0 0.0
2014-Jul-26 08:31N 39°13' E 009°06'9 9.2
2014-Jul-26 07:33N 39°06' E 009°14'8112.7
2014-Jul-26 01:09N 40°19' E 010°02'8618.2
2014-Jul-25 20:25N 41°29' E 011°08'1618.3
2014-Jul-25 19:33N 41°42' E 011°20'183 7.3
2014-Jul-24 18:31N 38°59' E 009°32'1819.0
2014-Jul-24 17:33N 39°08' E 009°12'6 5.7
2014-Jul-24 16:31N 39°13' E 009°06'0 0.0
2014-Jul-24 15:31N 39°13' E 009°06'0 0.0
2014-Jul-24 14:31N 39°13' E 009°06'0 0.0
2014-Jul-24 13:33N 39°13' E 009°06'17510.1
2014-Jul-23 20:13N 41°38' E 011°15'177 6.8
2014-Jul-22 18:07N 39°03' E 009°23'1119.5
2014-Jul-22 17:33N 39°08' E 009°11'6 2.8
2014-Jul-22 15:31N 39°13' E 009°06'0 0.0
2014-Jul-22 14:33N 39°13' E 009°06'0 0.0
2014-Jul-22 13:33N 39°13' E 009°06'0 0.0
2014-Jul-22 12:32N 39°13' E 009°06'0 0.0
2014-Jul-22 11:32N 39°13' E 009°06'0 0.0
2014-Jul-22 10:32N 39°13' E 009°06'0 0.0
2014-Jul-22 09:31N 39°13' E 009°06'0 0.0
2014-Jul-22 06:33N 39°13' E 009°06'1312.9
2014-Jul-22 05:33N 39°04' E 009°19'  
2014-Jul-19 19:13N 41°37' E 011°23'14 0.9
2014-Jul-19 03:13N 41°24' E 011°16'  
Track history (hours):
 
Tides and Currents Weather Stations Pressure Air Temp Water Temp Dewpoint Dewpoint Depression Visibility Wind Speed Wind Dir Waves Ship Positions

Bonaria

Last reported at 2014-Jul-28 23:33 UTC. Time now 2014-Jul-29 08:41 UTC.
Position N 40°23' E 010°33'.

Length 213 m; draft 7 m.

Type: Ship. MMSI: 247322400.

Date/timePositionNaut miles runAvg speedWind from/ knotsBaromVisibWave heightAir tempDewpointWater temp
2014-Jul-28 23:33N 40°23' E 010°33'9816.2
2014-Jul-28 17:32N 39°08' E 009°10'5 5.0
2014-Jul-28 16:32N 39°13' E 009°06'0 0.0
2014-Jul-28 15:31N 39°13' E 009°06'0 0.0
2014-Jul-28 14:31N 39°13' E 009°06'0 0.0
2014-Jul-28 13:33N 39°13' E 009°06'0 0.0
2014-Jul-28 12:30N 39°13' E 009°06'0 0.0
2014-Jul-28 11:32N 39°13' E 009°06'0 0.0
2014-Jul-28 10:32N 39°13' E 009°06'0 0.0
2014-Jul-28 09:32N 39°13' E 009°06'0 0.0
2014-Jul-28 08:28N 39°13' E 009°06'0 0.0
2014-Jul-28 07:31N 39°13' E 009°06'0 0.0
2014-Jul-28 06:33N 39°13' E 009°06'3 3.4
2014-Jul-28 05:33N 39°09' E 009°08'0 0.0
2014-Jul-26 17:33N 39°09' E 009°09'4 3.8
2014-Jul-26 16:31N 39°13' E 009°06'0 0.0
2014-Jul-26 15:31N 39°13' E 009°06'0 0.0
2014-Jul-26 14:31N 39°13' E 009°06'0 0.0
2014-Jul-26 13:33N 39°13' E 009°06'0 0.0
2014-Jul-26 12:33N 39°13' E 009°06'0 0.0
2014-Jul-26 11:29N 39°13' E 009°06'0 0.0
2014-Jul-26 10:32N 39°13' E 009°06'0 0.0
2014-Jul-26 09:31N 39°13' E 009°06'0 0.0
2014-Jul-26 08:31N 39°13' E 009°06'9 9.2
2014-Jul-26 07:33N 39°06' E 009°14'8112.7
2014-Jul-26 01:09N 40°19' E 010°02'8618.2
2014-Jul-25 20:25N 41°29' E 011°08'1618.3
2014-Jul-25 19:33N 41°42' E 011°20'183 7.3
2014-Jul-24 18:31N 38°59' E 009°32'1819.0
2014-Jul-24 17:33N 39°08' E 009°12'6 5.7
2014-Jul-24 16:31N 39°13' E 009°06'0 0.0
2014-Jul-24 15:31N 39°13' E 009°06'0 0.0
2014-Jul-24 14:31N 39°13' E 009°06'0 0.0
2014-Jul-24 13:33N 39°13' E 009°06'17510.1
2014-Jul-23 20:13N 41°38' E 011°15'177 6.8
2014-Jul-22 18:07N 39°03' E 009°23'1119.5
2014-Jul-22 17:33N 39°08' E 009°11'6 2.8
2014-Jul-22 15:31N 39°13' E 009°06'0 0.0
2014-Jul-22 14:33N 39°13' E 009°06'0 0.0
2014-Jul-22 13:33N 39°13' E 009°06'0 0.0
2014-Jul-22 12:32N 39°13' E 009°06'0 0.0
2014-Jul-22 11:32N 39°13' E 009°06'0 0.0
2014-Jul-22 10:32N 39°13' E 009°06'0 0.0
2014-Jul-22 09:31N 39°13' E 009°06'0 0.0
2014-Jul-22 06:33N 39°13' E 009°06'1312.9
2014-Jul-22 05:33N 39°04' E 009°19'  
2014-Jul-19 19:13N 41°37' E 011°23'14 0.9
2014-Jul-19 03:13N 41°24' E 011°16'  

Dump ship's entire track history